Location: Wayah Bald
(35.1806°N, 83.5603°W)
Time: 07:39:09
(UTC-04:00)

Meteor 1-27 Rocket - Visible Passes

Search period start: 02 September 2014 00:00
Search period end: 12 September 2014 00:00
Orbit: 831 x 909 km, 81.3° (Epoch: 01 September)

Date Brightness Start Highest point End Pass type
(mag) Time Alt. Az. Time Alt. Az. Time Alt. Az.
02 Sep 5.6 04:30:32 12° SE 04:34:38 27° E 04:39:20 10° NNE visible
02 Sep 4.5 06:13:01 11° SW 06:17:47 33° WNW 06:22:54 10° NNW visible
03 Sep 5.5 04:25:22 17° SE 04:28:32 28° E 04:33:19 10° NNE visible
03 Sep 4.5 06:07:51 15° SW 06:11:42 32° WNW 06:16:47 10° NNW visible
04 Sep 5.4 04:20:08 22° SE 04:22:26 29° E 04:27:18 10° NNE visible
04 Sep 4.6 06:02:37 19° WSW 06:05:38 31° WNW 06:10:40 10° NNW visible
05 Sep 5.3 04:14:50 26° ESE 04:16:20 30° E 04:21:16 10° NNE visible
05 Sep 4.6 05:57:18 23° WSW 05:59:34 30° WNW 06:04:34 10° NNW visible
06 Sep 5.2 04:09:28 30° ESE 04:10:15 31° E 04:15:15 10° NNE visible
06 Sep 4.6 05:51:57 25° W 05:53:30 29° WNW 05:58:27 10° NNW visible
07 Sep 5.1 04:04:04 33° E 04:04:09 33° E 04:09:13 10° NNE visible
07 Sep 4.6 05:46:32 27° W 05:47:26 28° WNW 05:52:20 10° NNW visible
08 Sep 5.2 03:58:36 33° ENE 03:58:36 33° ENE 04:03:11 10° NNE visible
08 Sep 4.7 05:41:04 27° WNW 05:41:22 27° WNW 05:46:13 10° NNW visible
09 Sep 5.3 03:53:06 32° ENE 03:53:06 32° ENE 03:57:09 10° NNE visible
09 Sep 4.8 05:35:34 26° WNW 05:35:34 26° WNW 05:40:05 10° NNW visible
10 Sep 5.4 03:47:34 30° NE 03:47:34 30° NE 03:51:07 10° NNE visible
10 Sep 5.0 05:30:02 24° WNW 05:30:02 24° WNW 05:33:58 10° NNW visible
11 Sep 5.6 03:42:00 28° NE 03:42:00 28° NE 03:45:05 10° NNE visible
11 Sep 5.1 05:24:28 23° NW 05:24:28 23° NW 05:27:51 10° NNW visible
